Вернуться в каталог

IUS R/B(1)

АктивенHEO
NORAD 15544·ROCKET BODY·🇺🇸 United States

Запущен Jan 24, 1985 с Cape Canaveral Space Force Station

Loading…

Ближайшие Пролёты (ближайшие 24 часа)

TLE

СвежийSource: Space-Track

Эпоха: Sep 14, 2026, 08:58 UTC

1 15544U 85010C   26257.37362986  .00001055  00000-0  79411-3 0  9995
2 15544  27.9300 355.1307 6831669  25.5736 356.2867  2.83683327 74632

Отслеживайте IUS R/B(1) в реальном времени с AllMySat

Download on the App Store